User: anonymous   Login
Location: Del Oro Observatory
(38.3044°N, 104.8119°W)
Time: 22:19:17
(UTC-06:00)
Language:

Cosmos 1602 Rocket - Orbit

View from above orbital plane
View from above orbital plane
View from above satellite
View from above satellite

Ground track
Ground track

The orbit data is extracted from the following two-line orbital elements,

1 15332U 84105B   16243.21282334  .00000108  00000-0  10244-4 0  9997
2 15332  82.5330 100.0539 0019728 248.4162 251.1232 14.83256112723459
Epoch (UTC): 30 August 2016 05:06:27
Eccentricity: 0.0019728
inclination: 82.5330°
perigee height: 605 km
apogee height: 633 km
right ascension of ascending node: 100.0539°
argument of perigee: 248.4162°
revolutions per day: 14.83256112
mean anomaly at epoch: 251.1232°
orbit number at epoch: 72345

The dashed part of the orbit path shows where the satellite is in the earth's shadow,  

DLR